SWA484 KBHM-KBNA

Flight info

Callsign SWA484
Flight time 0h 40m
Altitude 28000
Route KELCC BNTLE KNEEY CHSNE CHSNE3
Aircraft B738/M-SDE2E3FGHIRWXY/LB1

Departure

Time 2026-04-18 07:07
Airport Birmingham-Shuttlesworth International Airport (KBHM)

Arrival

Time 2026-04-18 07:48
Airport Nashville International Airport (KBNA)
Time Latitude Longitude Altitude Speed Heading
2026-04-18 06:47 33.56179 -86.75414 638 ft 0 kts 167°
2026-04-18 06:58 33.56180 -86.75414 638 ft 0 kts 166°
2026-04-18 06:58 33.56187 -86.75416 642 ft 2 kts 165°
2026-04-18 06:59 33.56203 -86.75421 639 ft 2 kts 167°
2026-04-18 06:59 33.56219 -86.75425 641 ft 2 kts 167°
2026-04-18 06:59 33.56236 -86.75429 642 ft 2 kts 167°
2026-04-18 06:59 33.56252 -86.75433 640 ft 2 kts 167°
2026-04-18 07:00 33.56258 -86.75435 642 ft 0 kts 167°
2026-04-18 07:01 33.56255 -86.75435 640 ft 3 kts 176°
2026-04-18 07:02 33.56227 -86.75485 639 ft 10 kts 256°
2026-04-18 07:02 33.56204 -86.75563 639 ft 10 kts 249°
2026-04-18 07:02 33.56178 -86.75657 640 ft 14 kts 259°
2026-04-18 07:02 33.56161 -86.75765 640 ft 13 kts 243°
2026-04-18 07:03 33.56110 -86.75860 644 ft 14 kts 236°
2026-04-18 07:03 33.56052 -86.75956 638 ft 14 kts 235°
2026-04-18 07:03 33.55978 -86.76090 630 ft 26 kts 236°
2026-04-18 07:03 33.55862 -86.76287 629 ft 29 kts 234°
2026-04-18 07:04 33.55749 -86.76478 631 ft 27 kts 237°
2026-04-18 07:04 33.55649 -86.76664 631 ft 26 kts 236°
2026-04-18 07:04 33.55547 -86.76831 621 ft 24 kts 235°
2026-04-18 07:04 33.55455 -86.76991 625 ft 22 kts 235°
2026-04-18 07:05 33.55425 -86.77053 618 ft 0 kts 257°
2026-04-18 07:05 33.55423 -86.77062 615 ft 6 kts 259°
2026-04-18 07:05 33.55457 -86.77122 611 ft 10 kts 340°
2026-04-18 07:06 33.55516 -86.77089 619 ft 10 kts 53°
2026-04-18 07:06 33.55559 -86.77014 618 ft 23 kts 55°
2026-04-18 07:06 33.55830 -86.76553 621 ft 110 kts 54°
2026-04-18 07:06 33.56410 -86.75549 659 ft 180 kts 55°
2026-04-18 07:07 33.57206 -86.74181 1218 ft 209 kts 55°
2026-04-18 07:07 33.58058 -86.72746 2309 ft 212 kts 55°
2026-04-18 07:07 33.58975 -86.71276 3033 ft 237 kts 52°
2026-04-18 07:07 33.60388 -86.70027 3319 ft 272 kts 16°
2026-04-18 07:08 33.62259 -86.70007 4051 ft 279 kts 339°
2026-04-18 07:08 33.63847 -86.71256 5199 ft 272 kts 309°
2026-04-18 07:08 33.65098 -86.72993 6249 ft 280 kts 306°
2026-04-18 07:08 33.66357 -86.74811 7199 ft 285 kts 307°
2026-04-18 07:09 33.67635 -86.76626 8329 ft 284 kts 307°
2026-04-18 07:09 33.68932 -86.78423 9381 ft 287 kts 308°
2026-04-18 07:09 33.70301 -86.80289 9844 ft 303 kts 308°
2026-04-18 07:09 33.71688 -86.82144 9979 ft 296 kts 308°
2026-04-18 07:10 33.73070 -86.83971 9960 ft 293 kts 309°
2026-04-18 07:10 33.74441 -86.85774 9942 ft 292 kts 309°
2026-04-18 07:10 33.75353 -86.86970 9933 ft 292 kts 309°
2026-04-18 07:10 33.76724 -86.88767 9917 ft 293 kts 309°
2026-04-18 07:11 33.78102 -86.90570 9908 ft 293 kts 308°
2026-04-18 07:11 33.79480 -86.92372 9894 ft 293 kts 308°
2026-04-18 07:11 33.80862 -86.94179 9887 ft 293 kts 308°
2026-04-18 07:11 33.82238 -86.95979 9864 ft 293 kts 308°
2026-04-18 07:12 33.83621 -86.97788 9869 ft 293 kts 308°
2026-04-18 07:12 33.84999 -86.99593 9852 ft 293 kts 308°
2026-04-18 07:12 33.86385 -87.01410 10090 ft 297 kts 308°
2026-04-18 07:12 33.87828 -87.03307 10249 ft 319 kts 308°
2026-04-18 07:13 33.89354 -87.05312 10401 ft 338 kts 309°
2026-04-18 07:13 33.90989 -87.07458 10541 ft 357 kts 309°
2026-04-18 07:13 33.92704 -87.09709 10708 ft 372 kts 309°
2026-04-18 07:13 33.94498 -87.12014 11130 ft 379 kts 313°
2026-04-18 07:14 33.96555 -87.14030 11694 ft 384 kts 323°
2026-04-18 07:14 33.98859 -87.15681 12331 ft 385 kts 327°
2026-04-18 07:14 34.01194 -87.17276 12940 ft 387 kts 327°
2026-04-18 07:14 34.03545 -87.18871 13550 ft 389 kts 327°
2026-04-18 07:15 34.05906 -87.20478 14118 ft 391 kts 327°
2026-04-18 07:15 34.08277 -87.22102 14655 ft 393 kts 327°
2026-04-18 07:15 34.10633 -87.23724 15171 ft 396 kts 327°
2026-04-18 07:15 34.13030 -87.25382 15697 ft 399 kts 327°
2026-04-18 07:16 34.15444 -87.27057 16215 ft 402 kts 327°
2026-04-18 07:16 34.17879 -87.28750 16713 ft 405 kts 326°
2026-04-18 07:16 34.20336 -87.30461 17215 ft 408 kts 326°
2026-04-18 07:16 34.22802 -87.32180 17703 ft 410 kts 326°
2026-04-18 07:17 34.25279 -87.33907 18176 ft 413 kts 326°
2026-04-18 07:17 34.27789 -87.35659 18579 ft 416 kts 326°
2026-04-18 07:17 34.30307 -87.37416 19039 ft 417 kts 326°
2026-04-18 07:17 34.32795 -87.39154 19484 ft 419 kts 326°
2026-04-18 07:18 34.35322 -87.40921 19901 ft 421 kts 326°
2026-04-18 07:18 34.37869 -87.42702 20319 ft 423 kts 326°
2026-04-18 07:18 34.40420 -87.44488 20740 ft 424 kts 326°
2026-04-18 07:18 34.42982 -87.46283 21144 ft 426 kts 326°
2026-04-18 07:19 34.45558 -87.48090 21536 ft 428 kts 326°
2026-04-18 07:19 34.48141 -87.49903 21929 ft 430 kts 325°
2026-04-18 07:19 34.50739 -87.51727 22319 ft 432 kts 325°
2026-04-18 07:19 34.53315 -87.53537 22675 ft 434 kts 325°
2026-04-18 07:20 34.55932 -87.55378 23034 ft 436 kts 325°
2026-04-18 07:20 34.58571 -87.57235 23395 ft 438 kts 325°
2026-04-18 07:20 34.61213 -87.59095 23710 ft 440 kts 325°
2026-04-18 07:20 34.63871 -87.60969 23993 ft 442 kts 325°
2026-04-18 07:21 34.66533 -87.62846 24283 ft 443 kts 324°
2026-04-18 07:21 34.69202 -87.64730 24575 ft 445 kts 324°
2026-04-18 07:21 34.71851 -87.66601 24864 ft 446 kts 324°
2026-04-18 07:21 34.74535 -87.68498 25141 ft 448 kts 324°
2026-04-18 07:22 34.77236 -87.70409 25421 ft 449 kts 324°
2026-04-18 07:22 34.79938 -87.72322 25695 ft 451 kts 324°
2026-04-18 07:22 34.82655 -87.74247 25962 ft 452 kts 324°
2026-04-18 07:22 34.85377 -87.76177 26220 ft 454 kts 324°
2026-04-18 07:23 34.88111 -87.78117 26502 ft 454 kts 324°
2026-04-18 07:23 34.90848 -87.80059 26878 ft 453 kts 323°
2026-04-18 07:23 34.93566 -87.81989 27301 ft 451 kts 323°
2026-04-18 07:23 34.96268 -87.83909 27723 ft 448 kts 323°
2026-04-18 07:24 34.98965 -87.85828 27948 ft 450 kts 323°
2026-04-18 07:24 35.01637 -87.87735 27937 ft 451 kts 323°
2026-04-18 07:24 35.04336 -87.89660 27934 ft 449 kts 323°
2026-04-18 07:24 35.07032 -87.91582 27930 ft 447 kts 323°
2026-04-18 07:25 35.09718 -87.93499 27931 ft 447 kts 323°
2026-04-18 07:25 35.12400 -87.95416 27934 ft 446 kts 323°
2026-04-18 07:25 35.15083 -87.97336 27925 ft 446 kts 322°
2026-04-18 07:25 35.17766 -87.99256 27925 ft 446 kts 322°
2026-04-18 07:26 35.20438 -88.01171 27924 ft 446 kts 322°
2026-04-18 07:26 35.23121 -88.03095 27926 ft 446 kts 322°
2026-04-18 07:26 35.25775 -88.04999 27918 ft 446 kts 322°
2026-04-18 07:26 35.28456 -88.06921 27924 ft 447 kts 323°
2026-04-18 07:27 35.31358 -88.08416 27907 ft 463 kts 339°
2026-04-18 07:27 35.34615 -88.08850 27909 ft 480 kts 355°
2026-04-18 07:27 35.37961 -88.08141 27936 ft 496 kts 11°
2026-04-18 07:27 35.41092 -88.06330 27912 ft 511 kts 30°
2026-04-18 07:28 35.43864 -88.03558 27954 ft 517 kts 37°
2026-04-18 07:28 35.46535 -88.00589 27931 ft 518 kts 38°
2026-04-18 07:28 35.49152 -87.97612 27911 ft 504 kts 38°
2026-04-18 07:28 35.51690 -87.94736 27914 ft 487 kts 38°
2026-04-18 07:29 35.54162 -87.91979 27914 ft 471 kts 37°
2026-04-18 07:29 35.56562 -87.89342 27913 ft 455 kts 37°
2026-04-18 07:29 35.58894 -87.86801 27917 ft 441 kts 36°
2026-04-18 07:29 35.61164 -87.84336 27921 ft 427 kts 36°
2026-04-18 07:30 35.63356 -87.81955 27920 ft 414 kts 36°
2026-04-18 07:30 35.65458 -87.79668 27908 ft 401 kts 36°
2026-04-18 07:30 35.67519 -87.77423 27853 ft 390 kts 36°
2026-04-18 07:30 35.69524 -87.75237 27730 ft 381 kts 36°
2026-04-18 07:31 35.71492 -87.73089 27576 ft 375 kts 36°
2026-04-18 07:31 35.73429 -87.70972 27393 ft 372 kts 36°
2026-04-18 07:31 35.75282 -87.68705 27233 ft 382 kts 47°
2026-04-18 07:31 35.76811 -87.65975 27115 ft 391 kts 59°
2026-04-18 07:32 35.77930 -87.62912 27002 ft 393 kts 68°
2026-04-18 07:32 35.78885 -87.59747 26636 ft 396 kts 69°
2026-04-18 07:32 35.79825 -87.56536 25799 ft 411 kts 69°
2026-04-18 07:32 35.80843 -87.53137 24599 ft 435 kts 69°
2026-04-18 07:33 35.81944 -87.49553 23345 ft 458 kts 69°
2026-04-18 07:33 35.83117 -87.45821 21968 ft 476 kts 67°
2026-04-18 07:33 35.84415 -87.42028 21080 ft 481 kts 66°
2026-04-18 07:33 35.85756 -87.38276 20555 ft 475 kts 65°
2026-04-18 07:34 35.87088 -87.34580 20110 ft 467 kts 65°
2026-04-18 07:34 35.88376 -87.30990 19626 ft 462 kts 65°
2026-04-18 07:34 35.89662 -87.27371 19090 ft 458 kts 65°
2026-04-18 07:34 35.90928 -87.23779 18568 ft 454 kts 66°
2026-04-18 07:35 35.92175 -87.20219 18050 ft 449 kts 66°
2026-04-18 07:35 35.93408 -87.16692 17458 ft 445 kts 66°
2026-04-18 07:35 35.94627 -87.13197 16873 ft 442 kts 66°
2026-04-18 07:35 35.95822 -87.09768 16383 ft 437 kts 66°
2026-04-18 07:36 35.97001 -87.06381 16251 ft 422 kts 66°
2026-04-18 07:36 35.98140 -87.03106 16150 ft 408 kts 66°
2026-04-18 07:36 35.99239 -86.99945 16061 ft 395 kts 66°
2026-04-18 07:36 36.00296 -86.96901 15938 ft 375 kts 66°
2026-04-18 07:37 36.01300 -86.94007 15806 ft 358 kts 66°
2026-04-18 07:37 36.02261 -86.91236 15599 ft 347 kts 66°
2026-04-18 07:37 36.03210 -86.88495 15092 ft 346 kts 66°
2026-04-18 07:37 36.04154 -86.85769 14623 ft 344 kts 66°
2026-04-18 07:38 36.05312 -86.83210 14126 ft 339 kts 46°
2026-04-18 07:38 36.07087 -86.81376 13720 ft 328 kts 24°
2026-04-18 07:38 36.09174 -86.80346 13232 ft 320 kts 12°
2026-04-18 07:38 36.11271 -86.79563 12731 ft 318 kts 11°
2026-04-18 07:39 36.13392 -86.78774 12237 ft 317 kts 12°
2026-04-18 07:39 36.15503 -86.77970 11743 ft 317 kts 12°
2026-04-18 07:39 36.17626 -86.77246 11262 ft 314 kts
2026-04-18 07:39 36.19751 -86.76639 10748 ft 313 kts
2026-04-18 07:40 36.21890 -86.76072 10277 ft 313 kts
2026-04-18 07:40 36.23974 -86.75528 10022 ft 304 kts
2026-04-18 07:40 36.25993 -86.75004 9954 ft 288 kts
2026-04-18 07:40 36.27903 -86.74540 9938 ft 270 kts
2026-04-18 07:41 36.29693 -86.74124 9917 ft 252 kts
2026-04-18 07:41 36.31351 -86.73756 9895 ft 232 kts
2026-04-18 07:41 36.32993 -86.73449 9803 ft 259 kts
2026-04-18 07:41 36.34838 -86.73023 9815 ft 266 kts
2026-04-18 07:42 36.36640 -86.72465 9869 ft 273 kts 19°
2026-04-18 07:42 36.38133 -86.70988 9921 ft 287 kts 57°
2026-04-18 07:42 36.38799 -86.68676 9999 ft 286 kts 91°
2026-04-18 07:42 36.38516 -86.66305 9984 ft 272 kts 122°
2026-04-18 07:43 36.37455 -86.64500 9999 ft 251 kts 150°
2026-04-18 07:43 36.35997 -86.63447 9992 ft 236 kts 171°
2026-04-18 07:43 36.34433 -86.62981 9894 ft 225 kts 179°
2026-04-18 07:43 36.32945 -86.62677 9802 ft 208 kts 180°
2026-04-18 07:44 36.31569 -86.62401 9678 ft 191 kts 180°
2026-04-18 07:44 36.30294 -86.62140 9312 ft 187 kts 180°
2026-04-18 07:44 36.28950 -86.61870 8507 ft 204 kts 179°
2026-04-18 07:44 36.27502 -86.61570 7737 ft 214 kts 177°
2026-04-18 07:45 36.26008 -86.61256 6971 ft 220 kts 176°
2026-04-18 07:45 36.24499 -86.61354 6167 ft 219 kts 198°
2026-04-18 07:45 36.23046 -86.61973 5200 ft 228 kts 200°
2026-04-18 07:45 36.21509 -86.62489 4403 ft 228 kts 194°
2026-04-18 07:46 36.20023 -86.62965 3894 ft 215 kts 198°
2026-04-18 07:46 36.18630 -86.63568 3250 ft 211 kts 204°
2026-04-18 07:46 36.17261 -86.64263 2519 ft 214 kts 202°
2026-04-18 07:46 36.15880 -86.64896 1721 ft 205 kts 199°
2026-04-18 07:47 36.14590 -86.65406 999 ft 191 kts 198°
2026-04-18 07:47 36.13379 -86.65924 577 ft 172 kts 198°
2026-04-18 07:47 36.12362 -86.66324 575 ft 127 kts 197°
2026-04-18 07:47 36.11748 -86.66576 590 ft 52 kts 197°
2026-04-18 07:48 36.11672 -86.66731 593 ft 17 kts 324°
2026-04-18 07:48 36.11774 -86.66710 590 ft 0 kts 19°
2026-04-18 07:48 36.11810 -86.66695 589 ft 25 kts 19°